#timestamp,LO_Frequency,Hit,StdDev 
1609421695.4,286046977.6,P
1609421715.2,286046978.1,P
1609421735.0,286046978.7,P
1609421735.9,286046978.7,Y
1609421755.8,286046998.8,P
1609421775.6,286046998.3,N
1609421795.5,286046998.9,N
1609421815.3,286046998.3,N
1609421835.1,286047001.0,N
1609421855.9,286047000.2,N
1609421875.7,286047002.6,N
1609421895.5,286047000.1,N
1609421915.4,286047002.2,N
1609421935.2,286047000.6,N
1609421955.1,286047000.6,N
1609421956.0,286047000.6,N
1609421975.8,286046999.9,N
1609421995.6,286047001.6,N
1609422015.5,286047002.5,N
1609422035.3,286047001.5,N
1609422055.1,286047001.9,N
1609422075.9,286047000.5,N
1609422095.7,286047002.1,N
1609422115.6,286047001.9,N
1609422135.4,286047002.5,N
1609422155.2,286047000.9,N
1609422175.1,286047000.4,N
1609422176.0,286047000.4,N
1609422195.8,286047002.8,N
1609422215.7,286047000.2,N
1609422235.5,286046998.1,N
1609422255.3,286047001.2,N
1609422275.2,286047001.0,N
1609422295.9,286047001.2,N
1609422315.7,286047000.1,N
1609422335.6,286047000.2,N
1609422355.4,286047001.9,N
1609422375.3,286047002.1,N
1609422395.1,286047003.9,Y
1609422396.0,286047003.9,P
1609422415.8,286047002.4,N
1609422435.7,286047002.4,N
1609422455.5,286047001.9,N
1609422475.3,286047004.3,Y
1609422495.2,286047000.2,P
1609422515.0,286046998.7,N
1609422515.9,286046998.7,N
1609422535.8,286046999.4,N
1609422555.6,286047000.6,N
1609422575.4,286047000.5,N
1609422595.3,286047000.5,N
1609422615.1,286047000.6,N
1609422635.8,286046999.0,N
1609422655.7,286046998.5,N
1609422675.5,286047000.8,N
1609422695.4,286047001.2,N
1609422715.2,286046998.8,N
1609422735.0,286047001.2,N
1609422735.9,286047001.2,N
1609422755.8,286047000.6,N
1609422775.6,286046998.7,N
1609422795.4,286046999.1,N
1609422815.3,286046998.8,N
1609422835.1,286046999.3,N
1609422855.9,286046998.7,N
1609422875.7,286046999.5,N
1609422895.5,286047000.8,N
1609422915.4,286047000.8,N
1609422935.2,286046999.0,N
1609422955.0,286046999.0,N
1609422955.9,286046999.0,N
1609422975.8,286046999.4,N
1609422995.6,286046999.2,N
1609423015.5,286046998.8,N
1609423035.3,286046998.4,N
1609423055.1,286046998.8,N
1609423075.9,286046998.2,N
1609423095.7,286047002.6,N
1609423115.6,286047001.5,N
1609423135.4,286047005.3,Y
1609423155.2,286047004.7,P
1609423175.1,286047006.4,N
1609423176.0,286047006.4,N
1609423195.8,286047008.4,Y
